| time (UTC) | temp C | wind direction | speed KPH | gust KPH | rain 1hr cm | rain 24hr cm | rain mn cm | humidity % | barometer mb |
| 20260506113042 | 12 | 0 | 0.0 | 0.0 | 0.00 | 0.00 | 0.00 | 89 | 1019.3 |
| 20260506111536 | 12 | 0 | 0.0 | 0.0 | 0.00 | 0.00 | 0.00 | 89 | 1019.1 |
| 20260506110039 | 12 | 0 | 0.0 | 0.0 | 0.00 | 0.00 | 0.00 | 89 | 1019.0 |
| 20260506104540 | 12 | 0 | 0.0 | 0.0 | 0.00 | 0.00 | 0.00 | 88 | 1018.8 |
| 20260506103039 | 12 | 0 | 0.0 | 0.0 | 0.00 | 0.00 | 0.00 | 88 | 1018.7 |
| 20260506101537 | 12 | 0 | 0.0 | 0.0 | 0.00 | 0.00 | 0.00 | 88 | 1018.6 |
| 20260506100039 | 12 | 0 | 0.0 | 0.0 | 0.00 | 0.00 | 0.00 | 88 | 1018.6 |
| 20260506094540 | 12 | 0 | 0.0 | 0.0 | 0.00 | 0.00 | 0.00 | 87 | 1018.5 |
| 20260506093035 | 12 | 0 | 0.0 | 0.0 | 0.00 | 0.00 | 0.00 | 87 | 1018.5 |
| 20260506091537 | 12 | 0 | 0.0 | 0.0 | 0.00 | 0.00 | 0.00 | 88 | 1018.5 |
| 20260506090036 | 13 | 0 | 0.0 | 0.0 | 0.00 | 0.00 | 0.00 | 88 | 1018.5 |
| 20260506084540 | 13 | 0 | 0.0 | 0.0 | 0.00 | 0.03 | 0.00 | 88 | 1018.5 |
| 20260506083039 | 13 | 0 | 0.0 | 0.0 | 0.00 | 0.03 | 0.00 | 87 | 1018.6 |
| 20260506081536 | 13 | 0 | 0.0 | 0.0 | 0.00 | 0.03 | 0.00 | 87 | 1018.5 |
| 20260506073037 | 13 | 0 | 0.0 | 0.0 | 0.00 | 0.20 | 0.00 | 85 | 1018.3 |
| 20260506071541 | 13 | 0 | 0.0 | 0.0 | 0.00 | 0.20 | 0.00 | 85 | 1018.2 |
| 20260506061535 | 13 | 278 | 0.0 | 3.2 | 0.00 | 0.33 | 0.20 | 84 | 1017.6 |
| 20260506044544 | 13 | 0 | 0.0 | 0.0 | 0.00 | 0.91 | 0.20 | 86 | 1016.9 |
| 20260506043035 | 13 | 0 | 0.0 | 0.0 | 0.00 | 0.91 | 0.20 | 85 | 1016.8 |
| 20260506041536 | 13 | 0 | 0.0 | 1.6 | 0.00 | 0.91 | 0.20 | 85 | 1016.5 |
| 20260506040036 | 14 | 0 | 0.0 | 0.0 | 0.00 | 0.91 | 0.20 | 83 | 1016.1 |
| 20260506034538 | 14 | 0 | 0.0 | 0.0 | 0.00 | 1.47 | 0.20 | 82 | 1016.2 |
| 20260506033039 | 14 | 0 | 0.0 | 0.0 | 0.00 | 1.47 | 0.20 | 82 | 1016.2 |
| 20260506031538 | 14 | 0 | 0.0 | 0.0 | 0.00 | 1.47 | 0.20 | 82 | 1015.9 |
| 20260506030055 | 15 | 0 | 0.0 | 1.6 | 0.00 | 1.47 | 0.20 | 79 | 1015.7 |
| 20260506024547 | 15 | 0 | 0.0 | 3.2 | 0.00 | 1.91 | 0.20 | 77 | 1015.5 |
| 20260506023039 | 15 | 255 | 0.0 | 1.6 | 0.00 | 1.91 | 0.20 | 76 | 1015.3 |
| 20260506021537 | 15 | 0 | 0.0 | 9.7 | 0.00 | 1.91 | 0.20 | 76 | 1015.1 |
| 20260506020035 | 16 | 0 | 0.0 | 4.8 | 0.00 | 1.91 | 0.20 | 75 | 1014.9 |
| 20260506014543 | 16 | 59 | 0.0 | 3.2 | 0.00 | 2.36 | 0.20 | 75 | 1015.0 |
| 20260506013043 | 16 | 15 | 0.0 | 3.2 | 0.00 | 2.36 | 0.20 | 75 | 1015.1 |
| 20260506011541 | 16 | 32 | 0.0 | 1.6 | 0.00 | 2.36 | 0.20 | 74 | 1015.1 |
| 20260506010045 | 16 | 276 | 0.0 | 3.2 | 0.00 | 2.36 | 0.20 | 73 | 1014.9 |
| 20260506004546 | 16 | 290 | 0.0 | 4.8 | 0.00 | 2.64 | 0.20 | 72 | 1014.9 |
| 20260506003040 | 16 | 212 | 0.0 | 4.8 | 0.00 | 2.64 | 0.20 | 72 | 1014.8 |
| 20260506001543 | 16 | 273 | 0.0 | 4.8 | 0.00 | 2.64 | 0.20 | 72 | 1014.8 |
| 20260506000038 | 16 | 239 | 0.0 | 4.8 | 0.00 | 2.64 | 0.20 | 73 | 1014.7 |
| 20260505234536 | 16 | 259 | 0.0 | 1.6 | 0.00 | 3.05 | 0.20 | 73 | 1014.7 |
| 20260505233035 | 16 | 74 | 0.0 | 3.2 | 0.00 | 3.05 | 0.20 | 73 | 1014.6 |
| 20260505231535 | 16 | 0 | 0.0 | 1.6 | 0.00 | 3.05 | 0.20 | 73 | 1014.7 |
| 20260505230046 | 16 | 0 | 0.0 | 3.2 | 0.00 | 3.05 | 0.20 | 75 | 1014.7 |
| 20260505224537 | 16 | 47 | 0.0 | 4.8 | 0.00 | 3.23 | 0.20 | 75 | 1014.7 |
| 20260505223036 | 16 | 57 | 1.6 | 4.8 | 0.00 | 3.23 | 0.20 | 75 | 1014.8 |
| 20260505221536 | 16 | 247 | 0.0 | 3.2 | 0.00 | 3.23 | 0.20 | 73 | 1014.9 |
| 20260505220041 | 16 | 255 | 1.6 | 6.4 | 0.00 | 3.23 | 0.20 | 73 | 1015.0 |
| 20260505214541 | 16 | 0 | 0.0 | 4.8 | 0.00 | 3.38 | 0.20 | 69 | 1015.1 |
| 20260505213054 | 16 | 344 | 1.6 | 9.7 | 0.00 | 3.38 | 0.20 | 71 | 1015.1 |
| 20260505211541 | 16 | 303 | 1.6 | 4.8 | 0.00 | 3.38 | 0.20 | 74 | 1015.1 |
| 20260505210042 | 16 | 283 | 0.0 | 3.2 | 0.00 | 3.38 | 0.20 | 74 | 1015.2 |
| 20260505204537 | 16 | 272 | 1.6 | 4.8 | 0.00 | 3.40 | 0.20 | 72 | 1015.3 |
| 20260505203044 | 16 | 163 | 1.6 | 6.4 | 0.00 | 3.40 | 0.20 | 73 | 1015.2 |
| 20260505201537 | 15 | 275 | 1.6 | 8.0 | 0.00 | 3.40 | 0.20 | 74 | 1015.3 |
| 20260505200038 | 15 | 273 | 1.6 | 8.0 | 0.00 | 3.40 | 0.20 | 76 | 1015.4 |
| 20260505194535 | 15 | 257 | 1.6 | 6.4 | 0.00 | 3.51 | 0.20 | 77 | 1015.5 |
| 20260505193052 | 15 | 251 | 0.0 | 4.8 | 0.00 | 3.51 | 0.20 | 78 | 1015.5 |
| 20260505191542 | 15 | 0 | 0.0 | 3.2 | 0.00 | 3.51 | 0.20 | 78 | 1015.4 |
| 20260505190042 | 15 | 259 | 1.6 | 8.0 | 0.00 | 3.51 | 0.20 | 76 | 1015.4 |
| 20260505184535 | 15 | 272 | 1.6 | 6.4 | 0.00 | 3.53 | 0.20 | 77 | 1015.2 |
| 20260505183036 | 15 | 257 | 0.0 | 6.4 | 0.00 | 3.53 | 0.20 | 78 | 1015.2 |
| 20260505181541 | 14 | 257 | 1.6 | 6.4 | 0.00 | 3.53 | 0.20 | 79 | 1015.2 |
| 20260505180044 | 14 | 261 | 3.2 | 8.0 | 0.00 | 3.53 | 0.20 | 81 | 1015.1 |
| 20260505174538 | 13 | 70 | 0.0 | 3.2 | 0.00 | 3.68 | 0.20 | 81 | 1015.0 |
| 20260505173035 | 13 | 260 | 1.6 | 4.8 | 0.00 | 3.68 | 0.20 | 83 | 1014.9 |
| 20260505171541 | 12 | 270 | 0.0 | 8.0 | 0.00 | 3.68 | 0.20 | 88 | 1014.9 |
| 20260505170038 | 12 | 266 | 0.0 | 3.2 | 0.00 | 3.68 | 0.20 | 88 | 1015.1 |
| 20260505164540 | 11 | 274 | 0.0 | 4.8 | 0.00 | 3.76 | 0.20 | 89 | 1015.0 |
| 20260505163041 | 11 | 271 | 0.0 | 4.8 | 0.00 | 3.76 | 0.20 | 89 | 1014.9 |
| 20260505161536 | 11 | 274 | 1.6 | 8.0 | 0.00 | 3.76 | 0.20 | 90 | 1014.9 |
| 20260505153047 | 10 | 0 | 0.0 | 0.0 | 0.00 | 3.76 | 0.20 | 91 | 1014.7 |
| 20260505151548 | 10 | 0 | 1.6 | 4.8 | 0.00 | 3.76 | 0.20 | 92 | 1014.7 |
| 20260505124540 | 10 | 0 | 0.0 | 0.0 | 0.00 | 3.76 | 0.20 | 94 | 1013.8 |
| 20260505123048 | 10 | 0 | 0.0 | 0.0 | 0.00 | 3.76 | 0.20 | 95 | 1013.5 |
| 20260505121537 | 10 | 0 | 0.0 | 0.0 | 0.00 | 3.76 | 0.20 | 95 | 1013.6 |
| 20260505120043 | 10 | 0 | 0.0 | 1.6 | 0.00 | 3.76 | 0.20 | 95 | 1013.5 |
| 20260505114534 | 10 | 0 | 0.0 | 0.0 | 0.00 | 3.76 | 0.20 | 95 | 1013.8 |